Time,TemperatureF,DewpointF,PressureIn,WindDirection,WindDirectionDegrees,WindSpeedMPH,WindSpeedGustMPH,Humidity,HourlyPrecipIn,Conditions,Clouds,dailyrainin,SoftwareType,DateUTC
2013-07-28 00:00:00,72.7,63.9,30.01,North,359,24.0,38.0,74,0.00,,,0.00,Weather View 32 v70,2013-07-28 10:00:00,
2013-07-28 00:05:00,72.6,64.2,30.00,North,359,31.0,38.0,75,0.00,,,0.00,Weather View 32 v70,2013-07-28 10:05:00,
2013-07-28 00:10:00,72.6,64.2,30.02,NNW,343,26.0,38.0,75,0.00,,,0.00,Weather View 32 v70,2013-07-28 10:10:00,
2013-07-28 00:15:00,72.6,64.9,30.00,North,6,34.0,38.0,77,0.00,,,0.00,Weather View 32 v70,2013-07-28 10:15:00,
2013-07-28 00:20:00,72.3,65.4,30.00,North,355,27.0,38.0,79,0.00,,,0.00,Weather View 32 v70,2013-07-28 10:20:00,
2013-07-28 00:25:00,72.2,65.3,30.00,NNW,327,25.0,38.0,79,0.00,,,0.00,Weather View 32 v70,2013-07-28 10:25:00,
2013-07-28 00:30:00,72.2,65.3,30.02,NNE,18,17.0,38.0,79,0.00,,,0.00,Weather View 32 v70,2013-07-28 10:30:00,
2013-07-28 00:35:00,72.0,65.5,30.00,NNW,348,24.0,38.0,80,0.00,,,0.00,Weather View 32 v70,2013-07-28 10:35:00,
2013-07-28 00:40:00,71.8,65.6,30.00,North,356,24.0,36.0,81,0.00,,,0.00,Weather View 32 v70,2013-07-28 10:40:00,
2013-07-28 00:45:00,71.4,65.2,30.01,North,8,20.0,36.0,81,0.00,,,0.00,Weather View 32 v70,2013-07-28 10:45:00,
2013-07-28 00:50:00,71.8,64.5,29.99,North,3,31.0,36.0,78,0.00,,,0.00,Weather View 32 v70,2013-07-28 10:50:00,
2013-07-28 00:55:00,72.3,63.9,29.99,North,2,25.0,37.0,75,0.00,,,0.00,Weather View 32 v70,2013-07-28 10:55:00,
2013-07-28 01:00:00,72.4,64.0,30.00,North,353,33.0,37.0,75,0.00,,,0.00,Weather View 32 v70,2013-07-28 11:00:00,
2013-07-28 01:05:00,72.2,64.6,29.98,North,8,26.0,37.0,77,0.00,,,0.00,Weather View 32 v70,2013-07-28 11:05:00,
2013-07-28 01:10:00,72.1,65.2,30.00,North,355,21.0,37.0,79,0.00,,,0.00,Weather View 32 v70,2013-07-28 11:10:00,
2013-07-28 01:15:00,72.0,65.5,29.99,North,349,26.0,37.0,80,0.00,,,0.00,Weather View 32 v70,2013-07-28 11:15:00,
2013-07-28 01:20:00,71.7,65.5,29.99,North,10,22.0,37.0,81,0.00,,,0.00,Weather View 32 v70,2013-07-28 11:20:00,
2013-07-28 01:25:00,71.6,65.8,29.98,NNW,345,30.0,37.0,82,0.00,,,0.00,Weather View 32 v70,2013-07-28 11:25:00,
2013-07-28 01:30:00,71.7,65.2,30.00,North,1,27.0,37.0,80,0.00,,,0.00,Weather View 32 v70,2013-07-28 11:30:00,
2013-07-28 01:35:00,71.7,65.9,29.99,North,8,25.0,37.0,82,0.00,,,0.00,Weather View 32 v70,2013-07-28 11:35:00,
2013-07-28 01:40:00,71.0,66.2,29.99,NNE,16,24.0,37.0,85,0.00,,,0.00,Weather View 32 v70,2013-07-28 11:40:00,
2013-07-28 01:45:00,70.3,65.9,30.00,North,8,15.0,37.0,86,0.00,,,0.00,Weather View 32 v70,2013-07-28 11:45:00,
2013-07-28 01:50:00,69.8,65.4,29.99,North,351,26.0,37.0,86,0.00,,,0.00,Weather View 32 v70,2013-07-28 11:50:00,
2013-07-28 01:55:00,69.7,65.3,29.99,North,360,22.0,36.0,86,0.00,,,0.00,Weather View 32 v70,2013-07-28 11:55:00,
2013-07-28 02:00:00,70.1,65.0,30.00,NNW,330,15.0,36.0,84,0.00,,,0.00,Weather View 32 v70,2013-07-28 12:00:00,
2013-07-28 02:05:00,70.2,64.8,29.99,North,6,25.0,36.0,83,0.00,,,0.00,Weather View 32 v70,2013-07-28 12:05:00,
2013-07-28 02:10:00,70.2,64.4,30.01,North,360,23.0,36.0,82,0.00,,,0.00,Weather View 32 v70,2013-07-28 12:10:00,
2013-07-28 02:15:00,70.3,64.5,30.00,North,4,18.0,34.0,82,0.00,,,0.00,Weather View 32 v70,2013-07-28 12:15:00,
2013-07-28 02:20:00,70.7,64.2,29.99,North,356,17.0,34.0,80,0.00,,,0.00,Weather View 32 v70,2013-07-28 12:20:00,
2013-07-28 02:25:00,71.1,64.2,29.99,North,351,18.0,34.0,79,0.00,,,0.00,Weather View 32 v70,2013-07-28 12:25:00,
2013-07-28 02:30:00,71.4,63.8,29.97,North,356,23.0,34.0,77,0.00,,,0.00,Weather View 32 v70,2013-07-28 12:30:00,
2013-07-28 02:35:00,71.9,63.5,29.98,North,353,23.0,34.0,75,0.00,,,0.00,Weather View 32 v70,2013-07-28 12:35:00,
2013-07-28 02:40:00,72.1,63.3,29.98,NNW,341,16.0,34.0,74,0.00,,,0.00,Weather View 32 v70,2013-07-28 12:40:00,
2013-07-28 02:45:00,72.2,63.4,29.99,North,360,17.0,33.0,74,0.00,,,0.00,Weather View 32 v70,2013-07-28 12:45:00,
2013-07-28 02:50:00,72.3,63.1,29.97,North,349,25.0,34.0,73,0.00,,,0.00,Weather View 32 v70,2013-07-28 12:50:00,
2013-07-28 02:55:00,72.2,63.4,29.98,NNW,330,25.0,34.0,74,0.00,,,0.00,Weather View 32 v70,2013-07-28 12:55:00,
2013-07-28 03:00:00,72.1,63.7,29.98,NNW,348,31.0,34.0,75,0.00,,,0.00,Weather View 32 v70,2013-07-28 13:00:00,
2013-07-28 03:05:00,71.9,63.9,29.98,NNE,17,22.0,34.0,76,0.00,,,0.00,Weather View 32 v70,2013-07-28 13:05:00,
2013-07-28 03:10:00,71.6,64.0,29.97,North,1,21.0,34.0,77,0.00,,,0.00,Weather View 32 v70,2013-07-28 13:10:00,
2013-07-28 03:15:00,71.6,64.4,29.97,North,4,27.0,34.0,78,0.00,,,0.00,Weather View 32 v70,2013-07-28 13:15:00,
2013-07-28 03:20:00,71.6,64.7,29.97,North,4,30.0,34.0,79,0.00,,,0.00,Weather View 32 v70,2013-07-28 13:20:00,
2013-07-28 03:25:00,71.4,64.9,29.98,NNW,337,24.0,34.0,80,0.00,,,0.00,Weather View 32 v70,2013-07-28 13:25:00,
2013-07-28 03:30:00,71.2,64.7,29.99,North,353,16.0,34.0,80,0.00,,,0.00,Weather View 32 v70,2013-07-28 13:30:00,
2013-07-28 03:35:00,71.1,64.6,29.97,North,6,19.0,34.0,80,0.00,,,0.00,Weather View 32 v70,2013-07-28 13:35:00,
2013-07-28 03:40:00,71.2,64.7,29.98,North,355,15.0,34.0,80,0.00,,,0.00,Weather View 32 v70,2013-07-28 13:40:00,
2013-07-28 03:45:00,71.2,64.3,29.99,North,349,13.0,34.0,79,0.00,,,0.00,Weather View 32 v70,2013-07-28 13:45:00,
2013-07-28 03:50:00,71.2,64.3,29.98,North,8,23.0,34.0,79,0.00,,,0.00,Weather View 32 v70,2013-07-28 13:50:00,
2013-07-28 03:55:00,71.4,64.2,29.98,NNE,17,15.0,34.0,78,0.00,,,0.00,Weather View 32 v70,2013-07-28 13:55:00,
2013-07-28 04:00:00,71.6,64.0,29.98,North,4,20.0,34.0,77,0.00,,,0.00,Weather View 32 v70,2013-07-28 14:00:00,
2013-07-28 04:05:00,71.9,63.9,29.98,NNW,338,22.0,35.0,76,0.00,,,0.00,Weather View 32 v70,2013-07-28 14:05:00,
2013-07-28 04:10:00,71.8,63.8,29.98,North,8,21.0,35.0,76,0.00,,,0.00,Weather View 32 v70,2013-07-28 14:10:00,
2013-07-28 04:15:00,71.6,63.6,29.98,North,358,17.0,35.0,76,0.00,,,0.00,Weather View 32 v70,2013-07-28 14:15:00,
2013-07-28 04:20:00,71.6,63.6,29.98,NNW,334,18.0,35.0,76,0.00,,,0.00,Weather View 32 v70,2013-07-28 14:20:00,
2013-07-28 04:25:00,71.7,63.7,29.98,NNW,347,25.0,35.0,76,0.00,,,0.00,Weather View 32 v70,2013-07-28 14:25:00,
2013-07-28 04:30:00,71.5,63.9,29.99,NNE,12,14.0,35.0,77,0.00,,,0.00,Weather View 32 v70,2013-07-28 14:30:00,
2013-07-28 04:35:00,71.7,63.7,29.98,NNW,334,20.0,35.0,76,0.00,,,0.00,Weather View 32 v70,2013-07-28 14:35:00,
2013-07-28 04:40:00,71.9,63.9,29.98,North,356,18.0,35.0,76,0.00,,,0.00,Weather View 32 v70,2013-07-28 14:40:00,
2013-07-28 04:45:00,71.8,63.8,29.97,NNW,343,16.0,35.0,76,0.00,,,0.00,Weather View 32 v70,2013-07-28 14:45:00,
2013-07-28 04:50:00,71.8,63.8,29.98,North,3,29.0,35.0,76,0.00,,,0.00,Weather View 32 v70,2013-07-28 14:50:00,
2013-07-28 04:55:00,71.8,63.8,29.97,NNW,347,30.0,35.0,76,0.00,,,0.00,Weather View 32 v70,2013-07-28 14:55:00,
2013-07-28 05:00:00,71.8,63.8,29.98,NNW,348,16.0,35.0,76,0.00,,,0.00,Weather View 32 v70,2013-07-28 15:00:00,
2013-07-28 05:05:00,71.7,63.7,29.98,NNW,332,17.0,30.0,76,0.00,,,0.00,Weather View 32 v70,2013-07-28 15:05:00,
2013-07-28 05:10:00,71.5,64.3,29.98,NE,46,16.0,32.0,78,0.00,,,0.00,Weather View 32 v70,2013-07-28 15:10:00,
2013-07-28 05:15:00,71.4,64.2,29.98,North,1,15.0,32.0,78,0.00,,,0.00,Weather View 32 v70,2013-07-28 15:15:00,
2013-07-28 05:20:00,71.2,64.3,29.98,NNW,335,24.0,32.0,79,0.00,,,0.00,Weather View 32 v70,2013-07-28 15:20:00,
2013-07-28 05:25:00,71.3,63.7,29.98,North,355,27.0,32.0,77,0.00,,,0.00,Weather View 32 v70,2013-07-28 15:25:00,
2013-07-28 05:30:00,71.6,64.4,29.99,NNW,338,19.0,32.0,78,0.00,,,0.00,Weather View 32 v70,2013-07-28 15:30:00,
2013-07-28 05:35:00,71.5,64.3,29.99,NNW,340,27.0,32.0,78,0.00,,,0.00,Weather View 32 v70,2013-07-28 15:35:00,
2013-07-28 05:40:00,71.4,64.9,29.99,NNW,347,19.0,32.0,80,0.00,,,0.00,Weather View 32 v70,2013-07-28 15:40:00,
2013-07-28 05:45:00,71.2,65.4,29.99,NNE,18,18.0,32.0,82,0.00,,,0.00,Weather View 32 v70,2013-07-28 15:45:00,
2013-07-28 05:50:00,71.2,65.4,30.00,North,5,18.0,32.0,82,0.00,,,0.00,Weather View 32 v70,2013-07-28 15:50:00,
2013-07-28 05:55:00,71.2,65.4,29.99,North,349,26.0,32.0,82,0.00,,,0.00,Weather View 32 v70,2013-07-28 15:55:00,
2013-07-28 06:00:00,71.2,64.7,29.99,NW,315,21.0,32.0,80,0.00,,,0.00,Weather View 32 v70,2013-07-28 16:00:00,
2013-07-28 06:05:00,72.0,63.2,29.98,North,355,16.0,32.0,74,0.00,,,0.00,Weather View 32 v70,2013-07-28 16:05:00,
2013-07-28 06:10:00,72.4,63.2,29.99,NNE,14,19.0,32.0,73,0.00,,,0.00,Weather View 32 v70,2013-07-28 16:10:00,
2013-07-28 06:15:00,72.7,62.7,29.99,North,354,24.0,32.0,71,0.00,,,0.00,Weather View 32 v70,2013-07-28 16:15:00,
2013-07-28 06:20:00,72.8,62.8,30.00,NNW,332,13.0,32.0,71,0.00,,,0.00,Weather View 32 v70,2013-07-28 16:20:00,
2013-07-28 06:25:00,72.8,62.8,30.00,NNW,337,17.0,32.0,71,0.00,,,0.00,Weather View 32 v70,2013-07-28 16:25:00,
2013-07-28 06:30:00,72.8,63.2,30.00,North,356,17.0,32.0,72,0.00,,,0.00,Weather View 32 v70,2013-07-28 16:30:00,
2013-07-28 06:36:00,72.9,63.3,30.00,North,1,18.0,32.0,72,0.00,,,0.00,Weather View 32 v70,2013-07-28 16:36:00,
2013-07-28 06:41:00,72.9,63.3,30.00,North,3,14.0,32.0,72,0.00,,,0.00,Weather View 32 v70,2013-07-28 16:41:00,
2013-07-28 06:46:00,73.0,63.4,30.00,North,9,22.0,32.0,72,0.00,,,0.00,Weather View 32 v70,2013-07-28 16:46:00,
2013-07-28 06:51:00,73.2,63.2,30.00,North,359,21.0,32.0,71,0.00,,,0.00,Weather View 32 v70,2013-07-28 16:51:00,
2013-07-28 06:56:00,73.0,63.8,30.01,NE,38,9.0,32.0,73,0.00,,,0.00,Weather View 32 v70,2013-07-28 16:56:00,
2013-07-28 07:01:00,72.9,63.7,30.00,North,357,20.0,29.0,73,0.00,,,0.00,Weather View 32 v70,2013-07-28 17:01:00,
2013-07-28 07:06:00,73.1,63.9,30.01,North,357,15.0,29.0,73,0.00,,,0.00,Weather View 32 v70,2013-07-28 17:06:00,
2013-07-28 07:11:00,73.3,62.5,30.00,North,353,15.0,29.0,69,0.00,,,0.00,Weather View 32 v70,2013-07-28 17:11:00,
2013-07-28 07:16:00,73.8,61.7,30.00,North,4,23.0,29.0,66,0.00,,,0.00,Weather View 32 v70,2013-07-28 17:16:00,
2013-07-28 07:21:00,73.7,62.0,30.00,NNW,338,20.0,28.0,67,0.00,,,0.00,Weather View 32 v70,2013-07-28 17:21:00,
2013-07-28 07:26:00,74.0,61.9,30.01,North,2,18.0,28.0,66,0.00,,,0.00,Weather View 32 v70,2013-07-28 17:26:00,
2013-07-28 07:31:00,73.7,62.9,30.01,North,4,19.0,30.0,69,0.00,,,0.00,Weather View 32 v70,2013-07-28 17:31:00,
2013-07-28 07:35:00,73.2,63.2,30.00,NNW,340,22.0,30.0,71,0.00,,,0.00,Weather View 32 v70,2013-07-28 17:35:00,
2013-07-28 07:38:00,73.3,64.5,30.01,NE,34,19.0,30.0,74,0.00,,,0.00,Weather View 32 v70,2013-07-28 17:38:00,
2013-07-28 07:43:00,72.7,65.4,30.01,North,10,25.0,35.0,78,0.00,,,0.00,Weather View 32 v70,2013-07-28 17:43:00,
2013-07-28 07:48:00,72.0,65.8,30.01,North,355,23.0,35.0,81,0.00,,,0.00,Weather View 32 v70,2013-07-28 17:48:00,
2013-07-28 07:53:00,72.0,66.2,30.01,NNE,16,16.0,35.0,82,0.00,,,0.00,Weather View 32 v70,2013-07-28 17:53:00,
2013-07-28 07:59:00,72.2,66.4,30.01,NNE,12,22.0,35.0,82,0.00,,,0.00,Weather View 32 v70,2013-07-28 17:59:00,
2013-07-28 08:00:00,72.1,65.9,30.01,North,8,16.0,35.0,81,0.00,,,0.00,Weather View 32 v70,2013-07-28 18:00:00,
2013-07-28 08:04:00,72.3,65.8,30.02,NW,326,12.0,35.0,80,0.00,,,0.00,Weather View 32 v70,2013-07-28 18:04:00,
2013-07-28 08:05:00,72.3,65.8,30.02,NW,320,14.0,35.0,80,0.00,,,0.00,Weather View 32 v70,2013-07-28 18:05:00,
2013-07-28 08:10:00,72.7,66.1,30.02,NNE,22,12.0,35.0,80,0.00,,,0.00,Weather View 32 v70,2013-07-28 18:10:00,
2013-07-28 08:15:00,73.1,66.2,30.01,NNE,20,17.0,35.0,79,0.00,,,0.00,Weather View 32 v70,2013-07-28 18:15:00,
2013-07-28 08:16:00,73.1,66.2,30.02,NNE,15,22.0,35.0,79,0.00,,,0.00,Weather View 32 v70,2013-07-28 18:16:00,
2013-07-28 08:20:00,72.3,65.0,30.01,North,11,23.0,35.0,78,0.00,,,0.00,Weather View 32 v70,2013-07-28 18:20:00,
2013-07-28 08:25:00,72.3,65.0,30.01,NW,312,10.0,35.0,78,0.00,,,0.00,Weather View 32 v70,2013-07-28 18:25:00,
2013-07-28 08:33:00,72.8,65.1,30.02,NNW,338,14.0,35.0,77,0.00,,,0.00,Weather View 32 v70,2013-07-28 18:33:00,
2013-07-28 08:38:00,72.8,65.1,30.02,NNE,26,13.0,32.0,77,0.00,,,0.00,Weather View 32 v70,2013-07-28 18:38:00,
2013-07-28 08:44:00,73.2,65.2,30.02,North,351,15.0,30.0,76,0.00,,,0.00,Weather View 32 v70,2013-07-28 18:44:00,
2013-07-28 08:49:00,73.4,65.3,30.01,NNE,26,17.0,30.0,76,0.00,,,0.00,Weather View 32 v70,2013-07-28 18:49:00,
2013-07-28 08:55:00,73.2,65.5,30.02,North,351,17.0,27.0,77,0.00,,,0.00,Weather View 32 v70,2013-07-28 18:55:00,
2013-07-28 09:00:00,73.2,65.5,30.01,North,358,21.0,25.0,77,0.00,,,0.00,Weather View 32 v70,2013-07-28 19:00:00,
2013-07-28 09:05:00,73.2,65.5,30.01,NNW,344,19.0,25.0,77,0.00,,,0.00,Weather View 32 v70,2013-07-28 19:05:00,
2013-07-28 09:10:00,73.6,65.5,30.01,North,352,18.0,25.0,76,0.00,,,0.00,Weather View 32 v70,2013-07-28 19:10:00,
2013-07-28 09:15:00,73.5,65.4,30.02,NNE,13,9.0,27.0,76,0.00,,,0.00,Weather View 32 v70,2013-07-28 19:15:00,
2013-07-28 09:21:00,73.5,65.8,30.02,NNW,348,10.0,27.0,77,0.00,,,0.00,Weather View 32 v70,2013-07-28 19:21:00,
2013-07-28 09:34:00,73.9,66.2,30.01,North,1,22.0,27.0,77,0.00,,,0.00,Weather View 32 v70,2013-07-28 19:34:00,
2013-07-28 09:39:00,73.5,66.6,30.00,North,10,22.0,27.0,79,0.00,,,0.00,Weather View 32 v70,2013-07-28 19:39:00,
2013-07-28 09:46:00,73.0,66.4,30.00,North,1,23.0,30.0,80,0.00,,,0.00,Weather View 32 v70,2013-07-28 19:46:00,
2013-07-28 09:52:00,73.2,67.0,30.00,NE,47,20.0,30.0,81,0.00,,,0.00,Weather View 32 v70,2013-07-28 19:52:00,
2013-07-28 09:55:00,73.3,66.4,30.00,NNW,332,24.0,30.0,79,0.00,,,0.00,Weather View 32 v70,2013-07-28 19:55:00,
2013-07-28 09:57:00,73.3,66.7,30.01,North,6,26.0,30.0,80,0.00,,,0.00,Weather View 32 v70,2013-07-28 19:57:00,
2013-07-28 10:00:00,73.3,66.7,30.01,NNW,328,24.0,32.0,80,0.00,,,0.00,Weather View 32 v70,2013-07-28 20:00:00,
2013-07-28 10:02:00,73.1,67.3,30.00,NNE,18,27.0,33.0,82,0.00,,,0.00,Weather View 32 v70,2013-07-28 20:02:00,
2013-07-28 10:05:00,72.8,67.0,29.99,NNE,26,28.0,33.0,82,0.00,,,0.00,Weather View 32 v70,2013-07-28 20:05:00,
2013-07-28 10:07:00,72.7,66.9,29.99,NE,37,28.0,33.0,82,0.00,,,0.00,Weather View 32 v70,2013-07-28 20:07:00,
2013-07-28 10:10:00,72.6,66.8,29.99,North,356,24.0,33.0,82,0.00,,,0.00,Weather View 32 v70,2013-07-28 20:10:00,
2013-07-28 10:15:00,72.5,66.3,29.99,North,10,26.0,33.0,81,0.00,,,0.00,Weather View 32 v70,2013-07-28 20:15:00,
2013-07-28 10:17:00,72.3,66.1,30.00,North,2,25.0,33.0,81,0.00,,,0.00,Weather View 32 v70,2013-07-28 20:17:00,
2013-07-28 10:22:00,71.9,65.7,30.00,North,2,22.0,33.0,81,0.00,,,0.00,Weather View 32 v70,2013-07-28 20:22:00,
2013-07-28 10:28:00,72.2,66.0,30.00,NW,320,19.0,33.0,81,0.00,,,0.00,Weather View 32 v70,2013-07-28 20:28:00,
2013-07-28 10:33:00,72.5,65.6,30.01,NNE,24,18.0,33.0,79,0.00,,,0.00,Weather View 32 v70,2013-07-28 20:33:00,
2013-07-28 10:38:00,72.7,65.4,30.00,NNW,334,24.0,33.0,78,0.00,,,0.00,Weather View 32 v70,2013-07-28 20:38:00,
2013-07-28 10:43:00,72.9,65.2,29.99,North,351,25.0,33.0,77,0.00,,,0.00,Weather View 32 v70,2013-07-28 20:43:00,
2013-07-28 10:49:00,73.1,65.8,30.01,North,8,10.0,33.0,78,0.00,,,0.00,Weather View 32 v70,2013-07-28 20:49:00,
2013-07-28 10:54:00,73.0,65.7,30.00,NNW,340,25.0,33.0,78,0.00,,,0.00,Weather View 32 v70,2013-07-28 20:54:00,
2013-07-28 10:59:00,73.3,66.0,30.01,North,6,18.0,33.0,78,0.00,,,0.00,Weather View 32 v70,2013-07-28 20:59:00,
2013-07-28 11:05:00,73.3,65.2,30.00,North,5,24.0,32.0,76,0.00,,,0.00,Weather View 32 v70,2013-07-28 21:05:00,
2013-07-28 11:10:00,73.6,64.8,30.00,NNW,338,15.0,32.0,74,0.00,,,0.00,Weather View 32 v70,2013-07-28 21:10:00,
2013-07-28 11:11:00,73.8,65.0,30.00,NNE,24,14.0,32.0,74,0.00,,,0.00,Weather View 32 v70,2013-07-28 21:11:00,
2013-07-28 11:19:00,74.5,64.8,30.00,North,350,16.0,32.0,72,0.00,,,0.00,Weather View 32 v70,2013-07-28 21:19:00,
2013-07-28 11:25:00,75.0,64.9,30.00,NW,315,14.0,32.0,71,0.00,,,0.00,Weather View 32 v70,2013-07-28 21:25:00,
2013-07-28 11:30:00,75.9,66.2,30.00,North,351,16.0,32.0,72,0.00,,,0.00,Weather View 32 v70,2013-07-28 21:30:00,
2013-07-28 11:35:00,75.7,65.2,29.98,North,8,24.0,32.0,70,0.00,,,0.00,Weather View 32 v70,2013-07-28 21:35:00,
2013-07-28 11:43:00,75.0,64.9,29.99,NNE,16,19.0,32.0,71,0.00,,,0.00,Weather View 32 v70,2013-07-28 21:43:00,
2013-07-28 11:48:00,75.1,65.4,29.99,North,360,22.0,32.0,72,0.00,,,0.00,Weather View 32 v70,2013-07-28 21:48:00,
2013-07-28 11:53:00,74.6,64.9,29.99,North,355,19.0,34.0,72,0.00,,,0.00,Weather View 32 v70,2013-07-28 21:53:00,
2013-07-28 11:59:00,75.2,65.5,29.98,NNW,348,23.0,34.0,72,0.00,,,0.00,Weather View 32 v70,2013-07-28 21:59:00,
2013-07-28 12:04:00,74.9,64.4,29.98,WNW,293,14.0,34.0,70,0.00,,,0.00,Weather View 32 v70,2013-07-28 22:04:00,
2013-07-28 12:05:00,74.9,64.4,29.98,WNW,289,14.0,34.0,70,0.00,,,0.00,Weather View 32 v70,2013-07-28 22:05:00,
2013-07-28 12:09:00,75.5,64.2,29.98,NNW,333,24.0,34.0,68,0.00,,,0.00,Weather View 32 v70,2013-07-28 22:09:00,
2013-07-28 12:10:00,75.5,64.2,29.98,NNW,340,26.0,34.0,68,0.00,,,0.00,Weather View 32 v70,2013-07-28 22:10:00,
2013-07-28 12:15:00,75.7,65.2,29.98,North,10,23.0,34.0,70,0.00,,,0.00,Weather View 32 v70,2013-07-28 22:15:00,
2013-07-28 12:17:00,75.7,64.8,29.97,NNE,12,16.0,34.0,69,0.00,,,0.00,Weather View 32 v70,2013-07-28 22:17:00,
2013-07-28 12:22:00,75.3,64.4,29.99,NNE,13,17.0,34.0,69,0.00,,,0.00,Weather View 32 v70,2013-07-28 22:22:00,
2013-07-28 12:28:00,75.5,64.2,29.98,North,351,22.0,34.0,68,0.00,,,0.00,Weather View 32 v70,2013-07-28 22:28:00,
2013-07-28 12:30:00,75.3,64.0,29.96,NNW,341,20.0,34.0,68,0.00,,,0.00,Weather View 32 v70,2013-07-28 22:30:00,
2013-07-28 12:34:00,75.4,64.1,29.98,NNW,342,9.0,34.0,68,0.00,,,0.00,Weather View 32 v70,2013-07-28 22:34:00,
2013-07-28 12:35:00,75.5,64.2,29.98,NNW,342,26.0,34.0,68,0.00,,,0.00,Weather View 32 v70,2013-07-28 22:35:00,
2013-07-28 12:39:00,75.5,64.2,29.97,NNW,346,25.0,34.0,68,0.00,,,0.00,Weather View 32 v70,2013-07-28 22:39:00,
2013-07-28 12:45:00,75.5,64.2,29.97,NNW,342,28.0,34.0,68,0.00,,,0.00,Weather View 32 v70,2013-07-28 22:45:00,
2013-07-28 12:50:00,75.4,64.5,29.97,NW,322,22.0,34.0,69,0.00,,,0.00,Weather View 32 v70,2013-07-28 22:50:00,
2013-07-28 12:55:00,75.7,63.5,29.98,NE,35,22.0,34.0,66,0.00,,,0.00,Weather View 32 v70,2013-07-28 22:55:00,
2013-07-28 12:57:00,75.9,63.7,29.97,North,354,21.0,34.0,66,0.00,,,0.00,Weather View 32 v70,2013-07-28 22:57:00,
2013-07-28 13:00:00,75.8,63.6,29.97,NNW,337,16.0,34.0,66,0.00,,,0.00,Weather View 32 v70,2013-07-28 23:00:00,
2013-07-28 13:02:00,76.2,64.0,29.97,North,8,20.0,34.0,66,0.00,,,0.00,Weather View 32 v70,2013-07-28 23:02:00,
2013-07-28 13:05:00,76.2,64.8,29.96,North,11,15.0,34.0,68,0.00,,,0.00,Weather View 32 v70,2013-07-28 23:05:00,
2013-07-28 13:08:00,75.8,64.0,29.97,NNE,21,22.0,34.0,67,0.00,,,0.00,Weather View 32 v70,2013-07-28 23:08:00,
2013-07-28 13:10:00,75.5,64.2,29.97,NNW,332,25.0,34.0,68,0.00,,,0.00,Weather View 32 v70,2013-07-28 23:10:00,
2013-07-28 13:13:00,75.9,64.5,29.97,North,8,23.0,34.0,68,0.00,,,0.00,Weather View 32 v70,2013-07-28 23:13:00,
2013-07-28 13:15:00,76.2,63.5,29.97,North,357,21.0,34.0,65,0.00,,,0.00,Weather View 32 v70,2013-07-28 23:15:00,
2013-07-28 13:18:00,76.2,64.4,29.97,North,353,29.0,34.0,67,0.00,,,0.00,Weather View 32 v70,2013-07-28 23:18:00,
2013-07-28 13:20:00,75.9,64.1,29.98,NNW,346,24.0,34.0,67,0.00,,,0.00,Weather View 32 v70,2013-07-28 23:20:00,
2013-07-28 13:24:00,75.9,65.0,29.95,North,8,26.0,34.0,69,0.00,,,0.00,Weather View 32 v70,2013-07-28 23:24:00,
2013-07-28 13:29:00,75.9,63.2,29.95,North,359,24.0,34.0,65,0.00,,,0.00,Weather View 32 v70,2013-07-28 23:29:00,
2013-07-28 13:35:00,76.0,64.6,29.94,North,8,24.0,35.0,68,0.00,,,0.00,Weather View 32 v70,2013-07-28 23:35:00,
2013-07-28 13:41:00,76.3,65.3,29.96,NNE,29,22.0,35.0,69,0.00,,,0.00,Weather View 32 v70,2013-07-28 23:41:00,
2013-07-28 13:47:00,76.7,64.9,29.94,NNE,24,27.0,35.0,67,0.00,,,0.00,Weather View 32 v70,2013-07-28 23:47:00,
2013-07-28 13:53:00,76.5,64.3,29.96,North,349,22.0,35.0,66,0.00,,,0.00,Weather View 32 v70,2013-07-28 23:53:00,
2013-07-28 14:00:00,77.4,65.1,29.95,NNW,327,22.0,35.0,66,0.00,,,0.00,Weather View 32 v70,2013-07-29 00:00:00,
2013-07-28 14:06:00,76.0,65.9,29.95,North,1,29.0,35.0,71,0.00,,,0.00,Weather View 32 v70,2013-07-29 00:06:00,
2013-07-28 14:10:00,75.7,64.3,29.94,North,10,24.0,35.0,68,0.00,,,0.00,Weather View 32 v70,2013-07-29 00:10:00,
2013-07-28 14:12:00,75.9,65.4,29.94,NNE,16,21.0,35.0,70,0.00,,,0.00,Weather View 32 v70,2013-07-29 00:12:00,
2013-07-28 14:15:00,76.0,65.5,29.93,NNE,16,18.0,35.0,70,0.00,,,0.00,Weather View 32 v70,2013-07-29 00:15:00,
2013-07-28 14:20:00,75.8,65.3,29.95,North,3,29.0,35.0,70,0.00,,,0.00,Weather View 32 v70,2013-07-29 00:20:00,
2013-07-28 14:25:00,75.8,66.1,29.95,NNW,340,23.0,35.0,72,0.00,,,0.00,Weather View 32 v70,2013-07-29 00:25:00,
2013-07-28 14:30:00,75.8,66.1,29.95,NNE,21,23.0,35.0,72,0.00,,,0.00,Weather View 32 v70,2013-07-29 00:30:00,
2013-07-28 14:36:00,75.2,65.9,29.94,NNE,17,25.0,35.0,73,0.00,,,0.00,Weather View 32 v70,2013-07-29 00:36:00,
2013-07-28 14:42:00,75.7,66.4,29.94,North,355,28.0,35.0,73,0.00,,,0.00,Weather View 32 v70,2013-07-29 00:42:00,
2013-07-28 14:47:00,75.9,65.8,29.94,NNE,18,25.0,35.0,71,0.00,,,0.00,Weather View 32 v70,2013-07-29 00:47:00,
2013-07-28 14:53:00,76.1,65.2,29.94,North,359,27.0,35.0,69,0.00,,,0.00,Weather View 32 v70,2013-07-29 00:53:00,
2013-07-28 14:59:00,76.1,65.2,29.95,NNE,20,23.0,35.0,69,0.00,,,0.00,Weather View 32 v70,2013-07-29 00:59:00,
2013-07-28 15:04:00,75.4,66.1,29.93,North,9,24.0,35.0,73,0.00,,,0.00,Weather View 32 v70,2013-07-29 01:04:00,
2013-07-28 15:05:00,75.4,65.3,29.93,North,8,21.0,35.0,71,0.00,,,0.00,Weather View 32 v70,2013-07-29 01:05:00,
2013-07-28 15:10:00,76.1,66.4,29.93,NNE,12,27.0,35.0,72,0.00,,,0.00,Weather View 32 v70,2013-07-29 01:10:00,
2013-07-28 15:16:00,76.1,65.6,29.93,NNW,331,20.0,34.0,70,0.00,,,0.00,Weather View 32 v70,2013-07-29 01:16:00,
2013-07-28 15:20:00,75.6,65.9,29.94,North,356,26.0,35.0,72,0.00,,,0.00,Weather View 32 v70,2013-07-29 01:20:00,
2013-07-28 15:21:00,75.6,65.5,29.93,North,3,28.0,35.0,71,0.00,,,0.00,Weather View 32 v70,2013-07-29 01:21:00,
2013-07-28 15:25:00,75.7,65.6,29.93,NNW,337,22.0,35.0,71,0.00,,,0.00,Weather View 32 v70,2013-07-29 01:25:00,
2013-07-28 15:28:00,75.8,65.3,29.94,NNE,20,22.0,35.0,70,0.00,,,0.00,Weather View 32 v70,2013-07-29 01:28:00,
2013-07-28 15:35:00,75.6,65.1,29.93,ENE,75,12.0,35.0,70,0.00,,,0.00,Weather View 32 v70,2013-07-29 01:35:00,
2013-07-28 15:41:00,75.6,65.9,29.94,North,357,23.0,37.0,72,0.00,,,0.00,Weather View 32 v70,2013-07-29 01:41:00,
2013-07-28 15:47:00,75.9,65.8,29.94,North,357,21.0,37.0,71,0.00,,,0.00,Weather View 32 v70,2013-07-29 01:47:00,
2013-07-28 15:50:00,75.9,65.8,29.93,NNW,327,13.0,37.0,71,0.00,,,0.00,Weather View 32 v70,2013-07-29 01:50:00,
2013-07-28 15:53:00,76.2,66.1,29.94,NNE,24,22.0,37.0,71,0.00,,,0.00,Weather View 32 v70,2013-07-29 01:53:00,
2013-07-28 15:55:00,76.5,65.9,29.94,NW,305,14.0,37.0,70,0.00,,,0.00,Weather View 32 v70,2013-07-29 01:55:00,
2013-07-28 15:59:00,76.5,66.4,29.93,NNE,30,21.0,37.0,71,0.00,,,0.00,Weather View 32 v70,2013-07-29 01:59:00,
2013-07-28 16:00:00,76.5,66.4,29.93,NNE,20,18.0,37.0,71,0.00,,,0.00,Weather View 32 v70,2013-07-29 02:00:00,
2013-07-28 16:05:00,76.5,66.4,29.94,NNW,342,21.0,37.0,71,0.00,,,0.00,Weather View 32 v70,2013-07-29 02:05:00,
2013-07-28 16:10:00,76.2,66.5,29.94,North,359,16.0,37.0,72,0.00,,,0.00,Weather View 32 v70,2013-07-29 02:10:00,
2013-07-28 16:15:00,76.0,66.7,29.93,North,1,17.0,37.0,73,0.00,,,0.00,Weather View 32 v70,2013-07-29 02:15:00,
2013-07-28 16:17:00,76.1,66.8,29.94,NNW,339,18.0,37.0,73,0.00,,,0.00,Weather View 32 v70,2013-07-29 02:17:00,
2013-07-28 16:20:00,76.1,66.4,29.95,North,354,24.0,37.0,72,0.00,,,0.00,Weather View 32 v70,2013-07-29 02:20:00,
2013-07-28 16:22:00,76.1,66.8,29.94,NW,304,13.0,37.0,73,0.00,,,0.00,Weather View 32 v70,2013-07-29 02:22:00,
2013-07-28 16:28:00,76.4,66.3,29.94,North,1,16.0,37.0,71,0.00,,,0.00,Weather View 32 v70,2013-07-29 02:28:00,
2013-07-28 16:33:00,76.4,67.1,29.93,NNW,332,26.0,37.0,73,0.00,,,0.00,Weather View 32 v70,2013-07-29 02:33:00,
2013-07-28 16:38:00,76.3,67.4,29.94,NW,319,18.0,33.0,74,0.00,,,0.00,Weather View 32 v70,2013-07-29 02:38:00,
2013-07-28 16:44:00,75.9,67.0,29.93,North,356,21.0,33.0,74,0.00,,,0.00,Weather View 32 v70,2013-07-29 02:44:00,
2013-07-28 16:49:00,76.0,67.9,29.94,NNE,12,17.0,33.0,76,0.00,,,0.00,Weather View 32 v70,2013-07-29 02:49:00,
2013-07-28 16:54:00,75.9,67.4,29.94,North,349,18.0,31.0,75,0.00,,,0.00,Weather View 32 v70,2013-07-29 02:54:00,
2013-07-28 16:59:00,75.9,67.0,29.93,NNW,342,18.0,31.0,74,0.00,,,0.00,Weather View 32 v70,2013-07-29 02:59:00,
2013-07-28 17:00:00,75.9,67.0,29.93,North,1,21.0,31.0,74,0.00,,,0.00,Weather View 32 v70,2013-07-29 03:00:00,
2013-07-28 17:04:00,75.8,67.3,29.94,NNE,16,14.0,31.0,75,0.00,,,0.00,Weather View 32 v70,2013-07-29 03:04:00,
2013-07-28 17:05:00,75.8,67.3,29.94,North,3,11.0,31.0,75,0.00,,,0.00,Weather View 32 v70,2013-07-29 03:05:00,
2013-07-28 17:10:00,75.7,67.6,29.93,NNE,15,21.0,31.0,76,0.00,,,0.00,Weather View 32 v70,2013-07-29 03:10:00,
2013-07-28 17:17:00,74.9,68.3,29.93,NE,43,19.0,31.0,80,0.00,,,0.00,Weather View 32 v70,2013-07-29 03:17:00,
2013-07-28 17:22:00,74.9,68.3,29.94,NNW,331,15.0,31.0,80,0.00,,,0.00,Weather View 32 v70,2013-07-29 03:22:00,
2013-07-28 17:27:00,74.8,68.2,29.93,NNW,331,20.0,31.0,80,0.00,,,0.00,Weather View 32 v70,2013-07-29 03:27:00,
2013-07-28 17:32:00,75.0,68.0,29.94,NNE,14,13.0,31.0,79,0.00,,,0.00,Weather View 32 v70,2013-07-29 03:32:00,
2013-07-28 17:37:00,75.2,68.2,29.94,NNE,29,20.0,31.0,79,0.00,,,0.00,Weather View 32 v70,2013-07-29 03:37:00,
2013-07-28 17:43:00,75.1,68.5,29.94,NNE,18,18.0,31.0,80,0.00,,,0.00,Weather View 32 v70,2013-07-29 03:43:00,
2013-07-28 17:48:00,74.8,68.6,29.94,NNW,339,17.0,31.0,81,0.00,,,0.00,Weather View 32 v70,2013-07-29 03:48:00,
2013-07-28 17:53:00,74.3,69.5,29.93,North,1,27.0,31.0,85,0.00,,,0.00,Weather View 32 v70,2013-07-29 03:53:00,
2013-07-28 17:58:00,73.6,69.5,29.93,North,8,21.0,31.0,87,0.00,,,0.00,Weather View 32 v70,2013-07-29 03:58:00,
2013-07-28 18:01:00,73.6,69.8,29.94,NNE,12,22.0,29.0,88,0.00,,,0.00,Weather View 32 v70,2013-07-29 04:01:00,
2013-07-28 18:02:00,73.4,69.3,29.94,NNE,19,20.0,30.0,87,0.00,,,0.00,Weather View 32 v70,2013-07-29 04:02:00,
2013-07-28 18:07:00,73.4,69.6,29.93,North,7,24.0,31.0,88,0.00,,,0.00,Weather View 32 v70,2013-07-29 04:07:00,
2013-07-28 18:12:00,73.3,69.2,29.92,NNE,14,22.0,32.0,87,0.00,,,0.00,Weather View 32 v70,2013-07-29 04:12:00,
2013-07-28 18:17:00,73.2,69.4,29.93,NNE,20,23.0,32.0,88,0.00,,,0.00,Weather View 32 v70,2013-07-29 04:17:00,
2013-07-28 18:22:00,73.2,69.4,29.94,NNE,16,24.0,32.0,88,0.00,,,0.00,Weather View 32 v70,2013-07-29 04:22:00,
2013-07-28 18:27:00,72.9,69.1,29.94,NNW,346,20.0,32.0,88,0.00,,,0.00,Weather View 32 v70,2013-07-29 04:27:00,
2013-07-28 18:32:00,72.7,69.3,29.93,North,6,27.0,32.0,89,0.00,,,0.00,Weather View 32 v70,2013-07-29 04:32:00,
2013-07-28 18:37:00,72.5,69.1,29.93,NNW,338,23.0,32.0,89,0.00,,,0.00,Weather View 32 v70,2013-07-29 04:37:00,
2013-07-28 18:42:00,72.2,68.8,29.93,NNE,14,24.0,32.0,89,0.00,,,0.00,Weather View 32 v70,2013-07-29 04:42:00,
2013-07-28 18:47:00,72.0,68.9,29.94,North,359,19.0,32.0,90,0.00,,,0.00,Weather View 32 v70,2013-07-29 04:47:00,
2013-07-28 18:52:00,71.9,69.1,29.94,NNW,343,17.0,32.0,91,0.00,,,0.00,Weather View 32 v70,2013-07-29 04:52:00,
2013-07-28 18:57:00,72.1,69.3,29.95,NW,325,12.0,32.0,91,0.00,,,0.00,Weather View 32 v70,2013-07-29 04:57:00,
2013-07-28 19:03:00,72.2,69.4,29.95,NNW,347,29.0,32.0,91,0.00,,,0.00,Weather View 32 v70,2013-07-29 05:03:00,
2013-07-28 19:08:00,72.5,69.4,29.95,NNW,346,28.0,33.0,90,0.00,,,0.00,Weather View 32 v70,2013-07-29 05:08:00,
2013-07-28 19:13:00,72.5,69.4,29.94,North,353,12.0,33.0,90,0.00,,,0.00,Weather View 32 v70,2013-07-29 05:13:00,
2013-07-28 19:18:00,72.4,69.3,29.95,North,349,14.0,33.0,90,0.00,,,0.00,Weather View 32 v70,2013-07-29 05:18:00,
2013-07-28 19:23:00,72.3,69.5,29.95,North,353,16.0,33.0,91,0.00,,,0.00,Weather View 32 v70,2013-07-29 05:23:00,
2013-07-28 19:28:00,72.0,69.2,29.95,North,8,13.0,33.0,91,0.00,,,0.00,Weather View 32 v70,2013-07-29 05:28:00,
2013-07-28 19:33:00,72.0,69.5,29.95,NNW,339,13.0,33.0,92,0.00,,,0.00,Weather View 32 v70,2013-07-29 05:33:00,
2013-07-28 19:38:00,72.3,69.8,29.96,North,3,20.0,33.0,92,0.00,,,0.00,Weather View 32 v70,2013-07-29 05:38:00,
2013-07-28 19:43:00,72.4,69.6,29.95,NNW,347,14.0,33.0,91,0.00,,,0.00,Weather View 32 v70,2013-07-29 05:43:00,
2013-07-28 19:48:00,72.2,69.7,29.96,North,9,15.0,33.0,92,0.00,,,0.00,Weather View 32 v70,2013-07-29 05:48:00,
2013-07-28 19:53:00,72.2,69.7,29.96,NNE,20,17.0,33.0,92,0.00,,,0.00,Weather View 32 v70,2013-07-29 05:53:00,
2013-07-28 19:58:00,72.2,70.1,29.95,NNW,347,16.0,33.0,93,0.00,,,0.00,Weather View 32 v70,2013-07-29 05:58:00,
2013-07-28 20:03:00,72.2,70.1,29.96,NNE,25,19.0,33.0,93,0.00,,,0.00,Weather View 32 v70,2013-07-29 06:03:00,
2013-07-28 20:08:00,72.1,70.0,29.96,North,1,21.0,28.0,93,0.00,,,0.00,Weather View 32 v70,2013-07-29 06:08:00,
2013-07-28 20:13:00,71.9,69.8,29.97,North,352,11.0,27.0,93,0.00,,,0.00,Weather View 32 v70,2013-07-29 06:13:00,
2013-07-28 20:18:00,71.6,69.5,29.95,NNW,335,26.0,31.0,93,0.00,,,0.00,Weather View 32 v70,2013-07-29 06:18:00,
2013-07-28 20:23:00,71.7,69.6,29.96,NNW,338,26.0,31.0,93,0.01,,,0.01,Weather View 32 v70,2013-07-29 06:23:00,
2013-07-28 20:28:00,71.9,69.8,29.96,NNW,343,24.0,36.0,93,0.01,,,0.01,Weather View 32 v70,2013-07-29 06:28:00,
2013-07-28 20:33:00,72.1,70.0,29.96,NNW,339,32.0,36.0,93,0.01,,,0.01,Weather View 32 v70,2013-07-29 06:33:00,
2013-07-28 20:38:00,72.2,69.7,29.96,NNE,22,21.0,36.0,92,0.01,,,0.01,Weather View 32 v70,2013-07-29 06:38:00,
2013-07-28 20:43:00,72.3,69.5,29.95,North,1,19.0,36.0,91,0.01,,,0.01,Weather View 32 v70,2013-07-29 06:43:00,
2013-07-28 20:48:00,72.5,69.7,29.97,NNW,337,9.0,36.0,91,0.01,,,0.01,Weather View 32 v70,2013-07-29 06:48:00,
2013-07-28 20:53:00,72.4,69.9,29.96,NNE,16,21.0,36.0,92,0.01,,,0.01,Weather View 32 v70,2013-07-29 06:53:00,
2013-07-28 20:58:00,72.2,69.7,29.95,North,359,23.0,36.0,92,0.01,,,0.01,Weather View 32 v70,2013-07-29 06:58:00,
2013-07-28 21:03:00,72.1,70.0,29.96,NW,318,20.0,36.0,93,0.01,,,0.01,Weather View 32 v70,2013-07-29 07:03:00,
2013-07-28 21:08:00,72.1,70.0,29.96,North,351,20.0,37.0,93,0.01,,,0.01,Weather View 32 v70,2013-07-29 07:08:00,
2013-07-28 21:13:00,72.2,70.1,29.95,North,355,31.0,37.0,93,0.01,,,0.01,Weather View 32 v70,2013-07-29 07:13:00,
2013-07-28 21:18:00,72.2,70.1,29.96,NNW,339,17.0,37.0,93,0.01,,,0.01,Weather View 32 v70,2013-07-29 07:18:00,
2013-07-28 21:23:00,72.4,70.3,29.96,North,360,36.0,37.0,93,0.00,,,0.01,Weather View 32 v70,2013-07-29 07:23:00,
2013-07-28 21:28:00,72.5,70.0,29.95,NNW,348,30.0,37.0,92,0.00,,,0.01,Weather View 32 v70,2013-07-29 07:28:00,
2013-07-28 21:33:00,72.5,70.4,29.97,North,353,21.0,37.0,93,0.00,,,0.01,Weather View 32 v70,2013-07-29 07:33:00,
2013-07-28 21:38:00,72.4,70.3,29.96,North,4,20.0,37.0,93,0.00,,,0.01,Weather View 32 v70,2013-07-29 07:38:00,
2013-07-28 21:43:00,72.3,70.2,29.96,NNW,343,18.0,37.0,93,0.00,,,0.01,Weather View 32 v70,2013-07-29 07:43:00,
2013-07-28 21:48:00,72.4,70.3,29.97,NNE,19,23.0,37.0,93,0.00,,,0.01,Weather View 32 v70,2013-07-29 07:48:00,
2013-07-28 21:53:00,72.4,70.3,29.96,NNW,341,16.0,37.0,93,0.00,,,0.01,Weather View 32 v70,2013-07-29 07:53:00,
2013-07-28 21:58:00,72.5,70.4,29.96,North,353,19.0,37.0,93,0.00,,,0.01,Weather View 32 v70,2013-07-29 07:58:00,
2013-07-28 22:03:00,72.6,70.4,29.97,North,358,19.0,37.0,93,0.00,,,0.01,Weather View 32 v70,2013-07-29 08:03:00,
2013-07-28 22:08:00,72.5,70.4,29.96,North,355,24.0,37.0,93,0.00,,,0.01,Weather View 32 v70,2013-07-29 08:08:00,
2013-07-28 22:13:00,72.2,70.1,29.97,North,358,21.0,37.0,93,0.00,,,0.01,Weather View 32 v70,2013-07-29 08:13:00,
2013-07-28 22:18:00,72.3,70.2,29.96,North,357,13.0,37.0,93,0.00,,,0.01,Weather View 32 v70,2013-07-29 08:18:00,
2013-07-28 22:23:00,72.5,70.0,29.96,NNW,346,23.0,37.0,92,0.00,,,0.01,Weather View 32 v70,2013-07-29 08:23:00,
2013-07-28 22:28:00,72.6,70.1,29.95,North,5,20.0,37.0,92,0.00,,,0.01,Weather View 32 v70,2013-07-29 08:28:00,
2013-07-28 22:33:00,72.6,70.1,29.96,North,1,18.0,37.0,92,0.00,,,0.01,Weather View 32 v70,2013-07-29 08:33:00,
2013-07-28 22:39:00,72.9,70.1,29.96,North,349,26.0,37.0,91,0.00,,,0.01,Weather View 32 v70,2013-07-29 08:39:00,
2013-07-28 22:44:00,73.1,70.0,29.96,North,354,21.0,37.0,90,0.00,,,0.01,Weather View 32 v70,2013-07-29 08:44:00,
2013-07-28 22:49:00,73.3,70.2,29.95,North,4,23.0,37.0,90,-0.01,,,0.01,Weather View 32 v70,2013-07-29 08:49:00,
2013-07-28 22:54:00,73.1,70.0,29.97,NW,318,21.0,37.0,90,0.00,,,0.01,Weather View 32 v70,2013-07-29 08:54:00,
2013-07-28 22:59:00,73.0,70.2,29.94,NNE,18,27.0,36.0,91,0.00,,,0.01,Weather View 32 v70,2013-07-29 08:59:00,
2013-07-28 23:04:00,72.8,70.3,29.96,NNE,12,20.0,36.0,92,0.00,,,0.01,Weather View 32 v70,2013-07-29 09:04:00,
2013-07-28 23:09:00,72.5,70.4,29.97,NE,38,17.0,36.0,93,0.00,,,0.01,Weather View 32 v70,2013-07-29 09:09:00,
2013-07-28 23:14:00,72.3,70.2,29.96,NNE,20,22.0,36.0,93,0.00,,,0.01,Weather View 32 v70,2013-07-29 09:14:00,
2013-07-28 23:19:00,72.1,70.3,29.95,North,355,27.0,36.0,94,0.00,,,0.01,Weather View 32 v70,2013-07-29 09:19:00,
2013-07-28 23:24:00,72.1,70.3,29.95,North,359,24.0,36.0,94,0.00,,,0.01,Weather View 32 v70,2013-07-29 09:24:00,
2013-07-28 23:29:00,72.0,70.2,29.96,North,359,15.0,36.0,94,0.00,,,0.01,Weather View 32 v70,2013-07-29 09:29:00,
2013-07-28 23:34:00,72.0,70.2,29.95,NNW,334,23.0,36.0,94,0.00,,,0.01,Weather View 32 v70,2013-07-29 09:34:00,
2013-07-28 23:39:00,72.0,70.2,29.95,NNW,341,29.0,36.0,94,0.00,,,0.01,Weather View 32 v70,2013-07-29 09:39:00,
2013-07-28 23:44:00,72.2,70.4,29.93,NNW,339,23.0,36.0,94,0.00,,,0.01,Weather View 32 v70,2013-07-29 09:44:00,
2013-07-28 23:49:00,72.4,70.3,29.94,North,354,20.0,36.0,93,0.00,,,0.01,Weather View 32 v70,2013-07-29 09:49:00,
2013-07-28 23:54:00,72.5,70.4,29.94,North,8,20.0,34.0,93,0.00,,,0.01,Weather View 32 v70,2013-07-29 09:54:00,
2013-07-28 23:59:00,72.6,70.1,29.93,NNW,345,19.0,33.0,92,-0.01,,,0.00,Weather View 32 v70,2013-07-29 09:59:00,